www.pogodaiklimat.ru

Погода и климат >> Архив погоды >> Россия >> Адыгея >> Даховская


ПОГОДА в Даховской

  • Прогноз погоды в Даховской
  • Монитор погоды в Даховской

АРХИВ ПОГОДЫ в Даховской

Время (UTC), дата Ветер
(напр.,м/с)
 
Видим.   Явления Облачность Т
(С)
Тd
(С)
f
(%)
Тe
(С)
Тes
(С)
Комфортность P
(гПа)
Po
(гПа)
Тmin
(С)
Tmax
(С)
R
(мм)
R24
(мм)
S
(см)
00 17.01 В 1 4000 м дымка 10/10 1000 м
[Cb cap]
-4.5 -4.5 100 -7 -7 1014.8 952.3
03 17.01 В 1 50 км 10/10 1000 м
[Sc diur, vesp]
-5.8 -5.8 100 -8 -8 1016.0 953.1 -6.2 5 19
06 17.01 ЮВ 1 50 км 3/0
[Ci fib]
-6.9 -6.9 100 -9 -8 1018.3 955.0 -7.0
09 17.01 штиль 0 50 км 4/0
[Ci]
+2.9 +0.2 82 +2 +7 1016.9 955.9
12 17.01 штиль 0 50 км 3/0
[Ci fib]
+2.6 -5.2 56 +2 +4 1017.2 956.1
15 17.01 штиль 0 50 км ясно -5.4 -5.4 100 -7 -7 1021.5 958.4 +4.7
18 17.01 ЮВ 1 50 км ясно -6.7 -6.7 100 -9 -9 1023.8 960.2
21 17.01 ЮВ 1 50 км ясно -8.6 -8.9 98 -11 -11 1025.6 961.4
00 18.01 ЮВ 2 50 км ясно -10.8 -11.5 95 -15 -15 1027.1 962.3
03 18.01 ЮВ 2 50 км ясно -12.2 -13.2 92 -17 -17 1027.4 962.3 -12.4 15
06 18.01 В 2 50 км ясно -11.7 -13.2 89 -16 -15 1027.9 962.9 -13.1
09 18.01 штиль 0 50 км ясно -1.0 -5.5 71 -2 +4 1024.5 962.1
12 18.01 ЮЗ 1 50 км ясно +3.4 -4.5 56 +2 +5 1021.7 960.5
15 18.01 штиль 0 50 км ясно -3.7 -3.7 100 -5 -5 1023.9 961.0 +4.9
18 18.01 ЮВ 1 50 км 1/0
[Ci fib]
-6.3 -6.3 100 -9 -9 1024.5 961.0
21 18.01 ЮВ 2 50 км 1/0
[Ci fib]
-7.0 -7.0 100 -12 -12 1024.9 961.2
00 19.01 В 2 50 км 3/0
[Ci fib]
-8.2 -8.4 98 -13 -13 1024.5 960.5
03 19.01 В 2 50 км 3/0
[Ci fib]
-8.9 -9.4 96 -13 -13 1024.0 959.9 -9.4 14
06 19.01 ЮВ 2 50 км 9/0
[Cs]
-8.6 -10.1 89 -13 -12 1024.3 960.2 -10.2
09 19.01 штиль 0 50 км 10/0
[Cs]
-0.6 -3.9 78 -2 +3 1022.0 959.9
12 19.01 ЮЗ 1 50 км 10/6 1000 м
[Sc Cs]
+2.0 -3.9 65 +1 +1 1020.6 959.2
15 19.01 штиль 0 50 км 10/10 1000 м
[Sc]
-1.4 -1.5 99 -3 -3 1021.9 959.7 +2.4
18 19.01 Ю 1 50 км 9/9 1000 м
[Sc]
-1.3 -1.5 99 -4 -4 1021.7 959.5
21 19.01 штиль 0 50 км 9/9 1000 м
[Sc]
-2.4 -2.4 100 -4 -4 1022.5 960.0
00 20.01 штиль 0 50 км 10/10 1000 м
[Cb cap]
-2.0 -2.0 100 -3 -3 1023.6 961.2
03 20.01 СЗ 1 4000 м дымка 10/10 1000 м
[Cb cap]
+0.9 +0.9 100 -1 -1 1024.0 962.2 -3.6 13
06 20.01 штиль 0 500 м туман ?/? +0.1 +0.1 100 -1 -1 1025.0 962.9
09 20.01 штиль 0 4000 м в посл. час туман 10/10 600 м
[Sc diur, vesp]
+2.3 +0.1 85 +1 +1 1024.3 962.7
12 20.01 СЗ 2 50 км {туман} 3/0
[Ac lent]
+4.6 +0.4 74 +2 +3 1022.3 961.4
15 20.01 штиль 0 50 км 4/4 1000 м
[Sc diur, vesp]
-0.1 -0.1 100 -2 -2 1024.0 961.9 +5.3
18 20.01 штиль 0 500 м туман ?/? -1.9 -1.9 100 -3 -3 1024.2 961.7
21 20.01 штиль 0 500 м туман ?/? -2.6 -2.6 100 -4 -4 1024.1 961.5
00 21.01 штиль 0 500 м туман ?/? -3.4 -3.4 100 -5 -5 1023.7 960.9
03 21.01 штиль 0 500 м туман ?/? -4.0 -4.0 100 -5 -5 1021.9 959.1 -4.7 9
06 21.01 штиль 0 50 км {туман} 3/0
[Ac cast Ci fib]
-5.1 -5.1 100 -6 -5 1021.2 958.2 -5.4
09 21.01 В 1 50 км 3/0
[Ac lent Ci fib]
+3.3 +2.7 96 +2 +6 1017.1 956.2
12 21.01 ЮЗ 2 50 км 9/9 1000 м
[Sc]
+10.3 -5.6 32 +10 +10 1010.4 954.7
15 21.01 ЮЗ 1 50 км 9/8 1000 м
[Sc Ci]
+7.8 -4.9 40 +8 +8 1014.5 954.7 +11.4
18 21.01 Ю 2
{11}
50 км 10/10 1000 м
[Sc]
+8.5 -6.7 33 +7 +7 1013.8 954.2
21 21.01 Ю 5 50 км 10/0
[Ac lent Ci]
+7.7 -4.6 41 +5 +5 1014.1 954.3
00 22.01 Ю 4
{16}
50 км 10/10 1000 м
[Sc]
+5.9 -2.5 55 +3 +3 1015.0 954.7
03 22.01 С 2 50 км 10/10 1000 м
[Sc]
+3.3 -0.6 76 +1 +1 1015.7 954.9 +3.3 3
06 22.01 С 2 4000 м дымка 10/0
[As trans]
+1.0 +1.0 100 -3 -2 1018.4 956.9 +1.0
09 22.01 С 1 20 км {снег} 10/10 300 м
[Frnb]
+1.9 +1.2 95 0 0 1019.5 958.2
12 22.01 С 2 20 км {снег} 10/10 300 м
[Frnb]
+1.2 -0.0 92 -2 -2 1019.8 958.3
15 22.01 СЗ 2 20 км 10/10 1000 м
[Sc]
-0.3 -0.3 100 -4 -4 1021.4 959.4 +3.2 1
18 22.01 штиль 0 20 км 6/0
[Ci]
-2.2 -2.2 100 -4 -4 1021.8 959.4
21 22.01 СВ 1 20 км 10/0
[Cs]
-1.7 -1.7 100 -4 -4 1021.5 959.3
00 23.01 штиль 0 4000 м дымка 10/0
[Cs]
-1.6 -1.6 100 -3 -3 1020.8 958.6
03 23.01 штиль 0 50 км 8/0
[Ci]
-2.4 -2.4 100 -4 -4 1019.9 957.6 -2.4 1
06 23.01 штиль 0 50 км 8/8 1000 м
[Sc]
-3.5 -3.5 100 -5 -5 1020.3 957.7 -4.1
09 23.01 З 1 50 км 1/0
[Ci fib]
+1.2 -1.9 80 -1 +5 1018.5 957.1
12 23.01 З 1 50 км 1/1 1000 м
[Sc]
+6.7 -1.9 54 +6 +8 1015.3 955.2
15 23.01 штиль 0 50 км ясно -0.6 -2.8 85 -2 -2 1016.2 954.5 +7.4
18 23.01 ЮВ 1 50 км ясно -0.7 -3.6 81 -3 -3 1016.5 954.7

 

Местоположение метеостанции Даховская (Адыгея, Россия): широта 44.67 долгота 40.75 высота над уровнем моря 264 м.

В архиве по умолчанию представлена погода в Даховской за последнюю неделю. Архивные данные за месяц целиком и за предыдущие месяцы, начиная с января 2011 года, Вы можете получить, выбрав интересующий диапазон дат из раскрывающегося списка и нажав кнопку "Ввод!".


*Определитесь, кто Вы:
робот инопланетянин человек

Внимание! Время в таблицах - всемирное. Для получения местного времени необходимо прибавить поправку, которая равна 3 ч.

Смотрите также архив погоды в соседних городах и на ближайших метеорологических станциях:

Погода в Дондуковской (Адыгея, Россия) (38 км)
Погода в Армавире (Краснодарский край, Россия) (45 км)
Погода в Майкопе (Адыгея, Россия) (53 км)
Погода в Шунтуке (Адыгея, Россия) (55 км)
Погода в Псебае (Краснодарский край, Россия) (60 км)
Погода в Отрадной (Краснодарский край, Россия) (65 км)
Погода в Белореченске (Краснодарский край, Россия) (68 км)
Погода в Кропоткине (Краснодарский край, Россия) (86 км)
Погода в Гузерипле (Адыгея, Россия) (89 км)
Погода в Невинномысске (Ставропольский край, Россия) (97 км)

Пояснения к столбцам:

Ветер - указаны скорость ветра в м/с - средняя за 10 мин, порывы в срок и между сроками (в фигурных скобках) и направление, откуда дует ветер: С - северный, СВ - северо-восточный, В - восточный, ЮВ - юго-восточный, Ю - южный, ЮЗ - юго-западный, З - западный, СЗ - северо-западный.
Видимость - горизонтальная дальность видимости в метрах или километрах. При видимости от 1 до 10 км при отсутствии осадков обычно наблюдается дымка, при ухудшении видимости до 1 км и менее - туман. В сухую погоду видимость может ухудшаться дымом, пылью или мглою.
Явления - указаны атмосферные явления, наблюдавшиеся в срок или в последний час перед сроком; фигурными скобками обозначены явления, наблюдавшиеся между сроками (за 1-3 часа до срока); квадратными скобками обозначены град или гололедные отложения с указанием их диаметра в мм.
Облачность - указаны через наклонную черту общая и нижняя облачность в баллах и высота нижней границы облаков в метрах; квадратными скобками обозначены формы облаков: Ci - перистые, Cs - перисто-слоистые, Cc - перисто-кучевые, Ac - высококучевые, As - высокослоистые, Sc - слоисто-кучевые, Ns - слоисто-дождевые, Cu - кучевые, Cb - кучево-дождевые. Подробнее классификацию облаков см. в Атласе облаков (PDF).
T - Температура воздуха - температура, измеренная на высоте 2 м над землей.
Td - Температура точки росы - температура, при понижении до которой содержащийся в воздухе водяной пар достигнет насыщения.
f - Относительная влажность воздуха - влажноcть воздуха, измеренная на высоте 2 м над землей.
Te - Эффективная температура - температура, которую ощущает одетый по сезону человек в тени. Характеристика душности погоды. При расчете учитывается влияние влажности воздуха и скорости ветра на теплоощущения человека.
Tes - Эффективная температура на солнце - температура, которую ощущает человек, с поправкой на солнечный нагрев. Характеристика знойности погоды. Зависит от высоты солнца над горизонтом, облачности и скорости ветра. Ночью, в пасмурную погоду, а также при ветре 12 м/с и более поправка равна нулю.
P - Атмосферное давление - приведенное к уровню моря атмосферное давление.
Po - Атмосферное давление - измеренное на уровне метеостанции атмосферное давление.
Tmin - Минимальная температура - минимум температуры воздуха на высоте 2 м над землей.
Tmax - Максимальная температура - максимум температуры воздуха на высоте 2 м над землей.
R - Количество осадков - Количество выпавших осадков за период времени, мм. При наведении курсора мыши на число - период времени, за который выпало указанное количество осадков.
R24 - Количество осадков - Количество выпавших осадков за 24 часа, мм.
S - Снежный покров - Высота снежного покрова, см. При наведении курсора мыши на число - состояние снежного покрова и степень покрытия местности в баллах.